STARLINK-35085

Last updated on Tue Sep 16 2025 00:02:07 GMT+0000 (Coordinated Universal Time)

1 65419U 25192R 25258.58341435 -.01479524 00000+0 -15596-1 0 9999 2 65419 53.1598 338.0866 0001027 83.9766 161.0565 15.66413569 3622
UTC large
Height (km)
Speed (km/s)
/
Latitude / Longitude
Inclination (degrees)
Orbital Period (minutes)
Azimuth
Elevation
Range (km)
Doppler Factor

Next 0 passes for location: London (51.5072 / 0.1276)

Sorry there are no passes over London.